• In Netherlands
  • List of Countries
  • For 7 days
  • Water Temperature
  • Satellite Maps
  • Weather Map
  • Weather Widgets
  • user-avatar
    Login

    Hourly Weather Adelaide

    Today, 25 July, Tuesday

    Time Temperature Precipitation Wind Pressure Humidity
    00:00 +14°C° 0 mm 5 mps 758 mmHg 59%
    01:00 +14°C° 0 mm 5 mps 758 mmHg 60%
    02:00 +13°C° 0 mm 5 mps 758 mmHg 62%
    03:00 +13°C° 0 mm 5 mps 758 mmHg 64%
    04:00 +13°C° 0 mm 5 mps 758 mmHg 68%
    05:00 +13°C° 0 mm 5 mps 758 mmHg 72%
    06:00 +12°C° 0 mm 4 mps 759 mmHg 76%
    07:00 +13°C° 0 mm 5 mps 759 mmHg 73%
    08:00 +14°C° 0 mm 5 mps 759 mmHg 71%
    09:00 +15°C° 0 mm 6 mps 759 mmHg 69%
    10:00 +16°C° 0 mm 6 mps 759 mmHg 67%
    11:00 +16°C° 0 mm 7 mps 759 mmHg 65%
    12:00 +17°C° 0 mm 7 mps 759 mmHg 63%
    13:00 +17°C° 0.1 mm 7 mps 759 mmHg 65%
    14:00 +16°C° 0.1 mm 6 mps 759 mmHg 66%
    15:00 +16°C° 0.1 mm 6 mps 759 mmHg 68%
    16:00 +15°C° 0.1 mm 6 mps 759 mmHg 71%
    17:00 +14°C° 0.1 mm 6 mps 759 mmHg 74%
    18:00 +13°C° 0.1 mm 6 mps 760 mmHg 77%
    19:00 +13°C° 0.1 mm 6 mps 760 mmHg 78%
    20:00 +13°C° 0.1 mm 6 mps 760 mmHg 80%
    21:00 +13°C° 0.1 mm 6 mps 761 mmHg 81%
    22:00 +13°C° 0.1 mm 6 mps 761 mmHg 81%
    23:00 +11°C° 0.1 mm 6 mps 761 mmHg 81%

    Tomorrow, 26 July, Wednesday

    Time Temperature Precipitation Wind Pressure Humidity
    00:00 +11°C° 0.1 mm 6 mps 761 mmHg 81%
    01:00 +11°C° 0 mm 6 mps 761 mmHg 81%
    02:00 +12°C° 0 mm 5 mps 762 mmHg 80%
    03:00 +12°C° 0 mm 5 mps 762 mmHg 80%
    04:00 +12°C° 0 mm 5 mps 762 mmHg 81%
    05:00 +10°C° 0 mm 5 mps 762 mmHg 82%
    06:00 +11°C° 0 mm 4 mps 763 mmHg 83%
    07:00 +12°C° 0 mm 4 mps 763 mmHg 79%
    08:00 +13°C° 0 mm 4 mps 764 mmHg 75%
    09:00 +14°C° 0 mm 4 mps 764 mmHg 71%
    10:00 +16°C° 0 mm 3 mps 764 mmHg 67%
    11:00 +16°C° 0 mm 3 mps 764 mmHg 64%
    12:00 +17°C° 0 mm 3 mps 764 mmHg 61%
    13:00 +17°C° 0 mm 3 mps 764 mmHg 60%
    14:00 +17°C° 0 mm 2 mps 764 mmHg 60%
    15:00 +17°C° 0 mm 2 mps 763 mmHg 59%
    16:00 +15°C° 0 mm 1 mps 764 mmHg 65%
    17:00 +14°C° 0 mm 1 mps 764 mmHg 70%
    18:00 +13°C° 0 mm 1 mps 764 mmHg 76%
    19:00 +12°C° 0 mm 1 mps 764 mmHg 77%
    20:00 +12°C° 0 mm 2 mps 764 mmHg 79%
    21:00 +12°C° 0 mm 2 mps 764 mmHg 80%
    22:00 +10°C° 0 mm 2 mps 764 mmHg 80%
    23:00 +10°C° 0 mm 3 mps 764 mmHg 80%

    Day after tomorrow, 27 July, Thursday

    Time Temperature Precipitation Wind Pressure Humidity
    00:00 +10°C° 0 mm 4 mps 764 mmHg 81%
    01:00 +10°C° 0 mm 4 mps 763 mmHg 77%
    02:00 +10°C° 0 mm 4 mps 762 mmHg 74%
    03:00 +10°C° 0 mm 4 mps 762 mmHg 70%
    04:00 +10°C° 0 mm 5 mps 761 mmHg 68%
    05:00 +10°C° 0 mm 5 mps 761 mmHg 65%
    06:00 +10°C° 0 mm 5 mps 761 mmHg 63%
    07:00 +11°C° 0.2 mm 6 mps 760 mmHg 61%
    08:00 +12°C° 0.2 mm 7 mps 760 mmHg 60%
    09:00 +14°C° 0.2 mm 7 mps 760 mmHg 59%
    10:00 +15°C° 0.5 mm 7 mps 759 mmHg 59%
    11:00 +16°C° 0.5 mm 8 mps 759 mmHg 60%
    12:00 +16°C° 0.5 mm 8 mps 758 mmHg 60%
    13:00 +17°C° 0.1 mm 7 mps 757 mmHg 58%
    14:00 +18°C° 0.1 mm 7 mps 757 mmHg 56%
    15:00 +19°C° 0.1 mm 6 mps 756 mmHg 54%
    16:00 +17°C° 0.1 mm 6 mps 757 mmHg 63%
    17:00 +17°C° 0.1 mm 6 mps 757 mmHg 73%
    18:00 +16°C° 0.1 mm 6 mps 757 mmHg 82%
    19:00 +15°C° 0 mm 6 mps 759 mmHg 83%
    20:00 +14°C° 0 mm 5 mps 760 mmHg 83%
    21:00 +13°C° 0 mm 5 mps 761 mmHg 84%
    22:00 +12°C° 0 mm 4 mps 761 mmHg 83%
    23:00 +12°C° 0 mm 4 mps 761 mmHg 83%

    28 July, Friday

    Time Temperature Precipitation Wind Pressure Humidity
    00:00 +11°C° 0 mm 3 mps 761 mmHg 83%
    01:00 +11°C° 0 mm 3 mps 760 mmHg 83%
    02:00 +10°C° 0 mm 2 mps 760 mmHg 83%
    03:00 +10°C° 0 mm 2 mps 760 mmHg 83%
    04:00 +10°C° 0 mm 2 mps 760 mmHg 84%
    05:00 +10°C° 0 mm 2 mps 761 mmHg 85%
    06:00 +9°C° 0 mm 2 mps 761 mmHg 85%
    07:00 +10°C° 0 mm 3 mps 761 mmHg 82%
    08:00 +11°C° 0 mm 3 mps 761 mmHg 79%
    09:00 +12°C° 0 mm 4 mps 761 mmHg 76%
    10:00 +14°C° 0 mm 5 mps 760 mmHg 69%
    11:00 +15°C° 0 mm 5 mps 759 mmHg 62%
    12:00 +17°C° 0 mm 5 mps 758 mmHg 55%
    13:00 +19°C° 0 mm 5 mps 757 mmHg 55%
    14:00 +20°C° 0 mm 5 mps 756 mmHg 55%
    15:00 +21°C° 0 mm 5 mps 756 mmHg 56%
    16:00 +20°C° 0 mm 5 mps 755 mmHg 55%
    17:00 +19°C° 0 mm 5 mps 755 mmHg 55%
    18:00 +19°C° 0 mm 5 mps 754 mmHg 54%
    19:00 +19°C° 0 mm 6 mps 754 mmHg 48%
    20:00 +20°C° 0 mm 7 mps 754 mmHg 42%
    21:00 +20°C° 0 mm 7 mps 754 mmHg 35%
    22:00 +20°C° 0 mm 8 mps 754 mmHg 35%
    23:00 +20°C° 0 mm 8 mps 753 mmHg 34%

    29 July, Saturday

    Time Temperature Precipitation Wind Pressure Humidity
    00:00 +20°C° 0 mm 8 mps 753 mmHg 33%
    01:00 +20°C° 0 mm 8 mps 752 mmHg 33%
    02:00 +20°C° 0 mm 8 mps 752 mmHg 34%
    03:00 +20°C° 0 mm 8 mps 751 mmHg 34%
    04:00 +18°C° 0 mm 8 mps 751 mmHg 35%
    05:00 +18°C° 0 mm 8 mps 751 mmHg 36%
    06:00 +18°C° 0 mm 8 mps 751 mmHg 37%
    07:00 +18°C° 0 mm 8 mps 751 mmHg 39%
    08:00 +18°C° 0 mm 8 mps 751 mmHg 41%
    09:00 +18°C° 0 mm 8 mps 751 mmHg 43%
    10:00 +18°C° 0.4 mm 8 mps 751 mmHg 53%
    11:00 +17°C° 0.4 mm 8 mps 751 mmHg 62%
    12:00 +17°C° 0.4 mm 8 mps 751 mmHg 72%
    13:00 +16°C° 2.7 mm 8 mps 751 mmHg 76%
    14:00 +15°C° 2.7 mm 9 mps 751 mmHg 81%
    15:00 +13°C° 2.7 mm 9 mps 751 mmHg 86%
    16:00 +12°C° 1.7 mm 9 mps 752 mmHg 85%
    17:00 +12°C° 1.7 mm 9 mps 753 mmHg 85%
    18:00 +11°C° 1.7 mm 8 mps 753 mmHg 84%
    19:00 +11°C° 0.3 mm 8 mps 754 mmHg 81%
    20:00 +11°C° 0.3 mm 8 mps 754 mmHg 78%
    21:00 +11°C° 0.3 mm 8 mps 754 mmHg 75%
    22:00 +11°C° 0.2 mm 8 mps 754 mmHg 75%
    23:00 +11°C° 0.2 mm 8 mps 755 mmHg 75%

    30 July, Sunday

    Time Temperature Precipitation Wind Pressure Humidity
    00:00 +10°C° 0.2 mm 8 mps 755 mmHg 74%
    01:00 +10°C° 0 mm 8 mps 755 mmHg 73%
    02:00 +10°C° 0 mm 8 mps 755 mmHg 72%
    03:00 +10°C° 0 mm 7 mps 755 mmHg 72%
    04:00 +10°C° 0 mm 7 mps 756 mmHg 72%
    05:00 +10°C° 0 mm 6 mps 756 mmHg 73%
    06:00 +10°C° 0 mm 5 mps 756 mmHg 74%
    07:00 +10°C° 0.1 mm 6 mps 757 mmHg 73%
    08:00 +11°C° 0.1 mm 6 mps 757 mmHg 73%
    09:00 +13°C° 0.1 mm 6 mps 757 mmHg 73%
    10:00 +12°C° 0.5 mm 7 mps 757 mmHg 72%
    11:00 +12°C° 0.5 mm 7 mps 757 mmHg 70%
    12:00 +14°C° 0.5 mm 7 mps 757 mmHg 69%
    13:00 +14°C° 0.5 mm 7 mps 757 mmHg 71%
    14:00 +13°C° 0.5 mm 6 mps 757 mmHg 74%
    15:00 +13°C° 0.5 mm 5 mps 756 mmHg 76%
    16:00 +11°C° 1.3 mm 6 mps 757 mmHg 80%
    17:00 +11°C° 1.3 mm 6 mps 757 mmHg 85%
    18:00 +10°C° 1.3 mm 6 mps 757 mmHg 89%
    19:00 +10°C° 0.5 mm 6 mps 757 mmHg 87%
    20:00 +10°C° 0.5 mm 5 mps 758 mmHg 85%
    21:00 +10°C° 0.5 mm 5 mps 758 mmHg 82%
    22:00 +10°C° 0.2 mm 5 mps 758 mmHg 83%
    23:00 +9°C° 0.2 mm 5 mps 759 mmHg 85%
    Show more